EXPRESS 80

Last updated on Mon Sep 07 2026 00:03:01 GMT+0000 (Coordinated Universal Time)

1 45986U 20053B 26249.39379468 -.00000151 00000+0 00000+0 0 9990 2 45986 0.0170 208.8436 0002052 195.0334 163.3783 1.00271765 22450
UTC large
Height (km)
Speed (km/s)
/
Latitude / Longitude
Inclination (degrees)
Orbital Period (minutes)
Azimuth
Elevation
Range (km)
Doppler Factor

Next 0 passes for location: London (51.5072 / 0.1276)

No passes found over London.
EXPRESS 80